Regional Weather Roundup
Issued by NWS

Home | Current Version | Previous Version | Graphics & Text | Print | Product List | Glossary On
Versions: 1 2 3 4 5 6 7 8 9 10 11 12 13 14 15 16 17 18 19 20 21 22 23 24 25 26 27 28 29 30 31 32 33 34 35 36 37 38 39 40 41 42 43 44 45 46 47 48 49 50
000
ASUS43 KLOT 260503
RWRIL

ILLINOIS REGIONAL WEATHER ROUNDUP
NATIONAL WEATHER SERVICE CHICAGO/ROMEOVILLE IL
1200 AM CDT THU MAY 26 2016

NOTE: "FAIR" INDICATES FEW OR NO CLOUDS BELOW 12,000 FEET WITH NO
SIGNIFICANT WEATHER AND/OR OBSTRUCTIONS TO VISIBILITY.

* THESE STATIONS ARE NOT UNDER NWS QUALITY CONTROL. THEY ALSO MAY NOT
  REPORT WEATHER SUCH AS PRECIPITATION OR FOG.

ILZ001-002-007-009-015-016-024-260600-
NORTHWEST ILLINOIS

CITY           SKY/WX    TMP DP  RH WIND       PRES   REMARKS
MOLINE         PTCLDY    73  61  65 S7        29.89S
$$

ILZ003-004-008-010-011-017-018-260600-
NORTH CENTRAL ILLINOIS

CITY           SKY/WX    TMP DP  RH WIND       PRES   REMARKS
ROCKFORD       PTCLDY    67  63  87 SE6       29.93F
FREEPORT*      MOCLDY    66  62  87 S6        29.92S
ROCHELLE*      CLEAR     67  65  94 S8        29.92S
$$

ILZ005-006-012>014-019>023-260600-
NORTHEAST ILLINOIS

CITY           SKY/WX    TMP DP  RH WIND       PRES   REMARKS
CHICAGO-OHARE  CLOUDY    66  65  96 SE14      29.94F
CHICAGO-MIDWAY CLOUDY    66  62  87 E9        29.95S
AURORA         CLEAR     66  64  93 E5        29.94S
LANSING*       PTCLDY    64  61  88 E3        29.97S
WAUKEGAN       MOCLDY    65  64  97 S7        29.92S
DUPAGE AIRPORT PTCLDY    66  63  90 SE7       29.94S
WHEELING       CLOUDY    67  64  90 SE9       29.95F
NORTHERLY ISL    N/A     60  58  92 SE6         N/A
NORTHERLY ISL    N/A     60  58  92 SE6         N/A
$$

LMZ740>746-260600-
SOUTHERN LAKE MICHIGAN

STATION/POSITION SKY/WX   TEMP    WIND        PRES    VSBY  WAVE
                          AIR SEA DIR/SP/G                  HT/PER
                          (F)     (DEG/KT/KT) (MB)    (MI)  (FT/S)
SOUTHERN BUOY              57 49  130/ 16/ 16 1013.4          1/ 3
WILMETTE HARBOR            61 56  140/ 10/ 12   N/A           1/ 2
HARRISON CRIB              62      80/  8/ 10   N/A
BURNHAM HARBOR             59     140/  6/  8   N/A
CALUMET HARBOR             62     110/  6/  9 1014.2
BURNS HARBOR               63      80/  9/ 11 1015.6F
MICHIGAN CITY              63      50/ 11/ 12   N/A
MICHIGAN CITY 6N           62 59   80/ 10/ 12   N/A           1/ 3
ST. JOSEPH                 62 59   20/ 12/ 16   N/A           2/ 4
$$

ILZ025>027-034>036-040-047-049-050-058-095>099-260600-
WEST-CENTRAL ILLINOIS

CITY           SKY/WX    TMP DP  RH WIND       PRES   REMARKS
QUINCY         MOCLDY    73  65  75 S7        29.93S
MACOMB*        CLEAR     73  64  73 S13       29.94F
PITTSFIELD*    CLEAR     72  65  79 S6        29.95F
$$

ILZ028>032-037-038-041>044-048-051>054-059>061-260600-
CENTRAL ILLINOIS

CITY           SKY/WX    TMP DP  RH WIND       PRES   REMARKS
BLOOMINGTON    CLEAR     70  68  93 S12       29.97F
DECATUR        CLEAR     71  66  84 S9        29.97S
PEORIA         CLEAR     72  65  78 S8        29.93S
SPRINGFIELD    CLEAR     72  66  81 S13       29.95F
TAYLORVILLE    NOT AVBL
$$

ILZ033-039-045-046-055>057-062-063-260600-
EAST-CENTRAL ILLINOIS

CITY           SKY/WX    TMP DP  RH WIND       PRES   REMARKS
CHAMPAIGN      CLOUDY    69  65  86 S8        29.99S
MATTOON        CLOUDY    70  65  84 S9        29.98F
$$

ILZ079-100>102-260600-
SOUTHWEST ILLINOIS

CITY           SKY/WX    TMP DP  RH WIND       PRES   REMARKS
CAHOKIA*       CLEAR     72  66  81 S6        29.97F
SPARTA*        CLEAR     69  66  92 S7        30.02R
$$

ILZ064>066-069>071-074>076-080>082-084>086-088>090-092>094-260600-
SOUTH-CENTRAL ILLINOIS

CITY           SKY/WX    TMP DP  RH WIND       PRES   REMARKS
CARBONDALE     CLEAR     67  64  90 S10       30.03S
MT. VERNON     CLEAR     68  61  77 SW9       30.03R
SALEM*         CLEAR     71  66  85 S10       30.01R
$$

ILZ067-068-072-073-078-083-087-091-260600-
SOUTHEAST ILLINOIS

CITY           SKY/WX    TMP DP  RH WIND       PRES   REMARKS
LAWRENCEVILLE  PTCLDY    69  65  86 S10       30.02F
FLORA*         PTCLDY    69  67  93 S7        30.01S
HARRISBURG*    PTCLDY    68  66  93 SW6       30.04S
ROBINSON*      CLOUDY    68  65  89 S7        30.02F
$$

ABBREVIATIONS USED IN REMARKS
   TC - TEMPERATURE IN CELSIUS
  WCI - WIND CHILL INDEX
   HX - HEAT INDEX
  VSB - VISIBILITY
$$





USA.gov is the U.S. government's official web portal to all federal, state and local government web resources and services.